This demonstration page uses our WeatherBlox Daily Observations layout. Learn more.

Hourly Observations for May 6, 2020

Temp ( °F °C ) Dew Point ( °F °C ) Humidity (%) Winds ( mph kmh ) Pressure ( in mb ) Visibility ( mi km ) Precip ( " mm )
12:15 am 00:15 Cloudy 46 8 46 8 100 100 SE 5 7 29.9 1012 7 11.26538 0 0
12:35 am 00:35 Cloudy 45 7 45 7 100 100 SE 3 6 29.9 1013 5 8.0467 0 0
12:55 am 00:55 Cloudy 45 7 45 7 100 100 ESE 3 6 29.89 1012 5 8.0467 0.01 0.254
1:15 am 01:15 Cloudy 45 7 45 7 100 100 E 3 6 29.89 1012 5 8.0467 0 0
1:35 am 01:35 Cloudy 45 7 45 7 100 100 E 3 6 29.87 1012 7 11.26538 0 0
1:55 am 01:55 Cloudy 45 7 45 7 100 100 E 3 6 29.87 1012 4 6.43736 0 0
2:15 am 02:15 Cloudy 45 7 45 7 100 100 ESE 7 11 29.86 1011 3 4.82802 0 0
2:35 am 02:35 Cloudy 45 7 45 7 100 100 ESE 5 7 29.86 1011 3 4.82802 0 0
2:55 am 02:55 Cloudy 45 7 45 7 100 100 ESE 5 7 29.85 1011 2.5 4.02335 0 0
3:15 am 03:15 Cloudy 45 7 45 7 100 100 ESE 6 9 29.84 1011 2 3.21868 0.01 0.254
3:35 am 03:35 Cloudy 45 7 45 7 100 100 ESE 3 6 29.83 1010 2.5 4.02335 0.02 0.508
3:55 am 03:55 Cloudy 45 7 45 7 100 100 SE 3 6 29.83 1010 3 4.82802 0.02 0.508
4:15 am 04:15 Cloudy 45 7 45 7 100 100 SE 3 6 29.82 1010 5 8.0467 0 0
4:35 am 04:35 Cloudy 45 7 45 7 100 100 Calm 29.82 1010 5 8.0467 0 0
4:55 am 04:55 Cloudy 45 7 45 7 100 100 Calm 29.81 1010 7 11.26538 0.01 0.254
5:15 am 05:15 Cloudy 45 7 45 7 100 100 Calm 29.81 1010 5 8.0467 0 0
5:35 am 05:35 Cloudy 45 7 45 7 100 100 Calm 29.8 1009 2.5 4.02335 0 0
5:55 am 05:55 Cloudy 45 7 45 7 100 100 S 3 6 29.81 1010 2 3.21868 0 0
6:15 am 06:15 Cloudy 45 7 45 7 100 100 SE 3 6 29.8 1009 2.5 4.02335 0 0
6:35 am 06:35 Cloudy 45 7 45 7 100 100 Calm 29.8 1009 1.75 2.816345 0 0
6:55 am 06:55 Cloudy 45 7 45 7 100 100 S 3 6 29.8 1009 1.75 2.816345 0 0
7:15 am 07:15 Cloudy 45 7 45 7 100 100 S 3 6 29.81 1010 1.5 2.41401 0 0
7:35 am 07:35 Cloudy 45 7 45 7 100 100 Calm 29.81 1010 1.25 2.011675 0.03 0.762
7:55 am 07:55 Cloudy 45 7 45 7 100 100 Calm 29.81 1010 2.5 4.02335 0.04 1.016
8:15 am 08:15 Cloudy 45 7 45 7 100 100 Calm 29.81 1010 4 6.43736 0 0
8:35 am 08:35 Cloudy 45 7 45 7 100 100 S 5 7 29.81 1010 2.5 4.02335 0.03 0.762
8:55 am 08:55 Cloudy 46 8 46 8 100 100 S 5 7 29.8 1009 10 16.0934 0.03 0.762
9:15 am 09:15 Cloudy 46 8 46 8 100 100 SW 5 7 29.8 1009 3 4.82802 0 0
9:35 am 09:35 Cloudy 46 8 46 8 100 100 S 6 9 29.79 1009 7 11.26538 0 0
9:55 am 09:55 Cloudy 46 8 46 8 100 100 S 3 6 29.79 1009 5 8.0467 0 0
10:15 am 10:15 Cloudy 46 8 46 8 100 100 SSW 6 9 29.79 1009 5 8.0467 0 0
10:35 am 10:35 Cloudy 46 8 46 8 100 100 SW 6 9 29.79 1009 5 8.0467 0.04 1.016
10:55 am 10:55 Cloudy 46 8 46 8 100 100 WSW 5 7 29.78 1008 10 16.0934 0.05 1.27
11:15 am 11:15 Cloudy 46 8 46 8 100 100 WSW 5 7 29.78 1008 10 16.0934 0.01 0.254
11:35 am 11:35 Cloudy 46 8 46 8 100 100 W 3 6 29.78 1008 10 16.0934 0.02 0.508
11:55 am 11:55 Cloudy 50 10 48 9 94 94 NW 5 7 29.78 1008 10 16.0934 0.02 0.508
12:15 pm 12:15 Cloudy 50 10 46 8 88 88 Calm 29.77 1008 10 16.0934 0 0
12:35 pm 12:35 Cloudy 52 11 46 8 82 82 WNW 6 9 29.76 1008 10 16.0934 0 0
12:55 pm 12:55 Cloudy 52 11 46 8 82 82 WNW 8 13 29.76 1008 10 16.0934 0 0
1:15 pm 13:15 Cloudy 50 10 46 8 88 88 WNW 15 24 29.77 1008 10 16.0934 0 0
1:35 pm 13:35 Cloudy 50 10 46 8 88 88 NW 13 20 29.77 1008 7 11.26538 0 0
1:55 pm 13:55 Cloudy 50 10 46 8 88 88 WNW 12 19 29.77 1008 10 16.0934 0 0
2:15 pm 14:15 Cloudy 50 10 45 7 82 82 NW 9 15 29.77 1008 10 16.0934 0 0
2:35 pm 14:35 Cloudy 52 11 45 7 77 77 NW 13 20 29.76 1008 10 16.0934 0 0
2:55 pm 14:55 Cloudy 52 11 43 6 72 72 WNW 18 30 29.76 1008 10 16.0934 0 0
3:15 pm 15:15 Cloudy 52 11 41 5 67 67 NW 14 22 29.77 1008 10 16.0934 0 0
3:35 pm 15:35 Cloudy 52 11 39 4 62 62 NW 21 33 29.77 1008 10 16.0934 0 0
3:55 pm 15:55 Cloudy 52 11 39 4 62 62 NW 21 33 29.77 1008 10 16.0934 0 0
4:15 pm 16:15 Cloudy 52 11 39 4 62 62 NW 20 31 29.77 1008 10 16.0934 0 0
4:35 pm 16:35 Cloudy 52 11 41 5 67 67 NW 20 31 29.77 1008 10 16.0934 0 0
4:55 pm 16:55 Cloudy 52 11 39 4 62 62 NNW 15 24 29.77 1008 10 16.0934 0 0
5:15 pm 17:15 Cloudy 52 11 39 4 62 62 NW 17 28 29.78 1009 10 16.0934 0 0
5:35 pm 17:35 Cloudy 52 11 39 4 62 62 NNW 22 35 29.79 1009 10 16.0934 0 0
5:55 pm 17:55 Cloudy 50 10 37 3 62 62 NW 14 22 29.81 1009 10 16.0934 0 0
6:15 pm 18:15 Cloudy 50 10 37 3 62 62 NW 16 26 29.82 1010 10 16.0934 0 0
6:35 pm 18:35 Cloudy 50 10 37 3 62 62 NW 14 22 29.82 1010 10 16.0934 0 0
6:55 pm 18:55 Cloudy 48 9 37 3 66 66 NNW 20 31 29.83 1010 10 16.0934 0 0
7:15 pm 19:15 Cloudy 46 8 37 3 71 71 NNW 16 26 29.83 1010 10 16.0934 0 0
7:35 pm 19:35 Cloudy 46 8 37 3 71 71 NNW 16 26 29.83 1010 10 16.0934 0 0
7:55 pm 19:55 Cloudy 45 7 39 4 81 81 NW 15 24 29.84 1011 10 16.0934 0 0
8:15 pm 20:15 Cloudy 45 7 39 4 81 81 NNW 12 19 29.85 1011 10 16.0934 0 0
8:35 pm 20:35 Cloudy 45 7 41 5 87 87 NNW 14 22 29.86 1011 10 16.0934 0 0
8:55 pm 20:55 Cloudy 45 7 41 5 87 87 NNW 21 33 29.86 1011 10 16.0934 0 0
9:15 pm 21:15 Cloudy 45 7 39 4 81 81 NNW 16 26 29.86 1011 10 16.0934 0 0
9:35 pm 21:35 Cloudy 45 7 39 4 81 81 NNW 14 22 29.87 1012 10 16.0934 0 0
9:55 pm 21:55 Cloudy 45 7 39 4 81 81 NNW 15 24 29.88 1012 10 16.0934 0 0
10:15 pm 22:15 Cloudy 45 7 41 5 87 87 NNW 14 22 29.89 1012 10 16.0934 0 0
10:35 pm 22:35 Cloudy 45 7 41 5 87 87 NNW 13 20 29.89 1012 10 16.0934 0 0
10:55 pm 22:55 Cloudy 43 6 39 4 87 87 N 13 20 29.9 1013 10 16.0934 0 0
11:15 pm 23:15 Cloudy 43 6 39 4 87 87 NNW 13 20 29.9 1013 10 16.0934 0 0
11:35 pm 23:35 Cloudy 43 6 41 5 93 93 NNW 16 26 29.9 1013 10 16.0934 0 0
11:55 pm 23:55 Cloudy 43 6 41 5 93 93 N 12 19 29.91 1013 10 16.0934 0 0

Powered by AerisWeather